CW8095 Weather Reports


time (UTC)temp
C
wind
direction
speed
KPH
gust
KPH
rain 1hr
cm
rain 24hr
cm
rain mn
cm
humidity
%
barometer
mb
20260510082518 18 84 0.0 1.6 0.00 0.00 0.00 79 1010.8
20260510081529 18 99 1.6 4.8 0.00 0.00 0.00 80 1010.6
20260510080525 18 98 1.6 4.8 0.00 0.00 0.00 79 1010.4
20260510075520 18 112 1.6 4.8 0.00 0.00 0.00 79 1010.3
20260510074516 18 143 1.6 6.4 0.00 0.00 0.00 80 1010.1
20260510073527 18 117 1.6 6.4 0.00 0.00 0.00 79 1010.2
20260510072523 18 85 1.6 3.2 0.00 0.00 0.00 77 1010.7
20260510071538 18 85 0.0 1.6 0.00 0.00 0.00 75 1010.9
20260510070549 18 85 0.0 1.6 0.00 0.00 0.00 76 1011.0
20260510065525 18 91 1.6 3.2 0.00 0.00 0.00 75 1011.3
20260510064540 19 291 1.6 3.2 0.00 0.00 0.00 74 1011.1
20260510063516 19 173 3.2 9.7 0.00 0.00 0.00 74 1010.0
20260510062527 19 171 4.8 16.1 0.00 0.00 0.00 74 1009.6
20260510061523 18 158 4.8 14.5 0.00 0.00 0.00 73 1009.6
20260510060518 18 146 3.2 9.7 0.00 0.00 0.00 72 1009.5
20260510055527 18 141 1.6 4.8 0.00 0.00 0.00 70 1009.6
20260510054615 18 146 1.6 3.2 0.00 0.00 0.00 68 1009.5
20260510053528 18 140 0.0 3.2 0.00 0.00 0.00 67 1009.3
20260510052541 18 131 1.6 4.8 0.00 0.00 0.00 65 1009.1
20260510051526 19 131 1.6 4.8 0.00 0.00 0.00 64 1009.1
20260510050525 19 134 3.2 9.7 0.00 0.00 0.00 63 1009.0
20260510045531 19 140 1.6 4.8 0.00 0.00 0.00 62 1009.0
20260510044533 20 155 1.6 4.8 0.00 0.00 0.00 61 1009.1
20260510043544 20 145 1.6 4.8 0.00 0.00 0.00 59 1009.2
20260510042521 20 135 1.6 3.2 0.00 0.00 0.00 57 1009.3
20260510041526 20 139 3.2 9.7 0.00 0.00 0.00 57 1009.3
20260510040525 21 135 3.2 9.7 0.00 0.00 0.00 56 1009.4
20260510035524 21 133 3.2 9.7 0.00 0.00 0.00 56 1009.3
20260510034519 21 121 4.8 9.7 0.00 0.00 0.00 55 1009.4
20260510033531 21 103 4.8 6.4 0.00 0.00 0.00 55 1009.5
20260510032529 21 130 4.8 11.3 0.00 0.00 0.00 55 1009.5
20260510031527 21 129 3.2 6.4 0.00 0.00 0.00 55 1009.6
20260510030516 22 137 1.6 6.4 0.00 0.00 0.00 55 1009.4
20260510025526 22 98 1.6 3.2 0.00 0.00 0.00 55 1009.3
20260510024542 22 126 1.6 4.8 0.00 0.00 0.00 55 1009.2
20260510023516 22 138 3.2 6.4 0.00 0.00 0.00 55 1009.1
20260510022527 23 107 3.2 6.4 0.00 0.00 0.00 54 1009.0
20260510021522 23 116 4.8 6.4 0.00 0.00 0.00 54 1008.9
20260510020518 23 107 4.8 6.4 0.00 0.00 0.00 54 1008.7
20260510015528 24 111 4.8 11.3 0.00 0.00 0.00 53 1008.6
20260510014524 25 116 6.4 11.3 0.00 0.00 0.00 51 1008.5
20260510013519 25 119 6.4 12.9 0.00 0.00 0.00 51 1008.4
20260510012550 25 114 6.4 9.7 0.00 0.00 0.00 50 1008.4
20260510011526 26 128 6.4 11.3 0.00 0.00 0.00 49 1008.2
20260510010521 27 113 6.4 11.3 0.00 0.00 0.00 46 1008.1
20260510005517 27 121 4.8 12.9 0.00 0.00 0.00 43 1008.0
20260510004528 28 118 3.2 9.7 0.00 0.00 0.00 35 1007.9
20260510003523 28 116 4.8 9.7 0.00 0.00 0.00 34 1007.9
20260510002539 29 135 1.6 3.2 0.00 0.00 0.00 34 1007.9
20260510001530 30 140 1.6 4.8 0.00 0.00 0.00 32 1007.8
20260510000546 31 162 1.6 4.8 0.00 0.00 0.00 30 1007.9
20260509235521 32 88 0.0 3.2 0.00 0.00 0.00 30 1007.9
20260509234517 36 61 3.2 6.4 0.00 0.00 0.00 30 1007.8
20260509233527 36 125 1.6 6.4 0.00 0.00 0.00 30 1008.0
20260509232543 36 127 3.2 6.4 0.00 0.00 0.00 30 1007.9
20260509231519 36 128 3.2 6.4 0.00 0.00 0.00 30 1007.8
20260509230530 37 120 4.8 12.9 0.00 0.00 0.00 29 1007.9
20260509225526 37 88 3.2 6.4 0.00 0.00 0.00 30 1007.9
20260509224521 37 70 4.8 9.7 0.00 0.00 0.00 30 1007.9
20260509223517 36 77 4.8 9.7 0.00 0.00 0.00 31 1007.8
20260509222528 37 93 4.8 11.3 0.00 0.00 0.00 29 1007.9
20260509221524 37 79 4.8 11.3 0.00 0.00 0.00 30 1007.9
20260509220519 36 87 3.2 9.7 0.00 0.00 0.00 30 1007.9
20260509215530 36 60 4.8 12.9 0.00 0.00 0.00 31 1007.9
20260509214526 36 148 1.6 6.4 0.00 0.00 0.00 32 1008.1
20260509213521 36 120 4.8 11.3 0.00 0.00 0.00 31 1008.2
20260509212517 36 57 4.8 12.9 0.00 0.00 0.00 31 1008.2
20260509211528 36 124 4.8 12.9 0.00 0.00 0.00 31 1008.4
20260509210523 36 87 6.4 14.5 0.00 0.00 0.00 31 1008.5
20260509205519 36 121 4.8 12.9 0.00 0.00 0.00 31 1008.6
20260509204530 36 107 6.4 14.5 0.00 0.00 0.00 31 1008.9
20260509203526 36 64 3.2 9.7 0.00 0.18 0.00 31 1008.9
20260509202522 36 148 1.6 9.7 0.00 0.33 0.00 30 1009.0
20260509201517 36 93 3.2 11.3 0.00 0.43 0.00 31 1009.2
20260509200648 36 67 3.2 9.7 0.00 0.43 0.00 32 1009.2
20260509195544 36 267 3.2 4.8 0.00 0.43 0.00 32 1009.3
20260509194519 35 14 3.2 11.3 0.00 0.43 0.00 34 1009.5
20260509193529 35 128 1.6 4.8 0.00 0.43 0.00 31 1009.6
20260509192525 35 226 3.2 9.7 0.00 0.43 0.00 33 1009.6
20260509191521 35 135 3.2 14.5 0.00 0.43 0.00 33 1009.6
20260509190516 35 265 3.2 9.7 0.00 0.43 0.00 34 1009.7
20260509185527 35 258 3.2 9.7 0.00 0.43 0.00 35 1009.9
20260509184522 34 253 4.8 11.3 0.00 0.43 0.00 35 1010.0
20260509183518 34 235 4.8 11.3 0.00 0.43 0.00 34 1010.0
20260509182529 35 263 4.8 11.3 0.00 0.43 0.00 35 1010.0
20260509181525 34 273 3.2 9.7 0.00 0.43 0.00 37 1010.1
20260509180520 33 254 4.8 9.7 0.00 0.43 0.00 37 1010.3
20260509175515 33 258 6.4 14.5 0.00 0.43 0.00 37 1010.3
20260509174526 33 252 6.4 14.5 0.00 0.43 0.00 37 1010.5
20260509173522 33 259 4.8 14.5 0.00 0.43 0.00 38 1010.6
20260509172518 32 283 6.4 14.5 0.00 0.43 0.00 40 1010.7
20260509171528 32 262 4.8 16.1 0.00 0.43 0.00 39 1010.8
20260509170524 32 268 6.4 16.1 0.00 0.43 0.00 40 1010.8
20260509165540 32 269 8.0 16.1 0.00 0.43 0.00 40 1010.9
20260509164555 32 264 6.4 14.5 0.00 0.43 0.00 41 1010.9
20260509163526 32 277 3.2 11.3 0.00 0.43 0.00 41 1011.0
20260509162522 32 259 6.4 16.1 0.00 0.43 0.00 40 1010.9
20260509161518 31 264 6.4 14.5 0.00 0.43 0.00 41 1010.8
20260509160529 31 256 6.4 16.1 0.00 0.43 0.00 40 1010.8
20260509155525 31 239 6.4 14.5 0.00 0.43 0.00 42 1010.9
20260509154520 30 263 8.0 16.1 0.00 0.43 0.00 43 1010.9
20260509153516 30 262 6.4 16.1 0.00 0.43 0.00 44 1010.8
20260509152527 30 265 8.0 16.1 0.00 0.43 0.00 45 1010.8
20260509151523 30 287 4.8 11.3 0.00 0.43 0.00 48 1010.6
20260509150519 30 270 4.8 14.5 0.00 0.43 0.00 51 1010.7
20260509145530 29 278 3.2 12.9 0.00 0.43 0.00 52 1010.7
20260509144525 29 267 3.2 9.7 0.00 0.43 0.00 54 1010.9
20260509143520 29 260 3.2 11.3 0.00 0.43 0.00 53 1010.9
20260509142516 30 224 1.6 6.4 0.00 0.43 0.00 50 1011.0
20260509141527 33 255 1.6 6.4 0.00 0.43 0.00 45 1011.1
20260509140523 33 280 4.8 11.3 0.00 0.43 0.00 44 1011.0
20260509135538 35 270 4.8 12.9 0.00 0.43 0.00 40 1011.0
20260509134529 33 258 3.2 9.7 0.00 0.43 0.00 45 1010.8
20260509133525 32 272 3.2 6.4 0.00 0.43 0.00 49 1010.7
20260509132521 30 255 4.8 9.7 0.00 0.43 0.00 52 1010.6
20260509131537 30 266 6.4 14.5 0.00 0.43 0.00 54 1010.6
20260509130528 27 269 4.8 14.5 0.00 0.43 0.00 65 1010.5
20260509125604 24 267 1.6 3.2 0.00 0.43 0.00 75 1010.4
20260509124519 22 264 3.2 6.4 0.00 0.43 0.00 83 1010.4
20260509123515 21 238 1.6 3.2 0.00 0.43 0.00 87 1010.4
20260509122526 21 177 0.0 1.6 0.00 0.43 0.00 88 1010.3
20260509121522 20 0.0 0.0 0.00 0.43 0.00 90 1010.1
20260509120517 20 177 0.0 1.6 0.00 0.43 0.00 91 1010.1
20260509115528 20 177 0.0 1.6 0.00 0.43 0.00 90 1010.1
20260509114524 20 175 0.0 1.6 0.00 0.43 0.00 91 1010.1
20260509113540 20 182 0.0 1.6 0.00 0.43 0.00 90 1010.0
20260509112515 20 182 0.0 1.6 0.00 0.43 0.00 88 1010.0
20260509111526 21 262 0.0 3.2 0.00 0.43 0.00 87 1010.0
20260509110521 21 242 3.2 6.4 0.00 0.43 0.00 89 1010.0
20260509105516 21 246 1.6 3.2 0.00 0.43 0.00 89 1010.0
20260509104527 21 265 1.6 3.2 0.00 0.43 0.00 89 1009.8
20260509103522 21 266 3.2 9.7 0.00 0.43 0.00 90 1009.9
20260509102518 21 270 4.8 12.9 0.00 0.43 0.00 91 1009.8
20260509101547 20 260 9.7 17.7 0.00 0.43 0.00 92 1009.5
20260509100543 20 191 1.6 6.4 0.00 0.43 0.00 92 1008.0
20260509095619 20 164 4.8 12.9 0.00 0.43 0.00 92 1007.2
20260509094529 20 163 6.4 20.9 0.00 0.43 0.00 91 1007.3
20260509093604 20 171 8.0 20.9 0.00 0.43 0.00 91 1007.3
20260509092520 20 157 6.4 20.9 0.00 0.43 0.00 91 1007.4
20260509091530 20 185 8.0 20.9 0.00 0.43 0.00 91 1007.4
20260509090525 20 168 6.4 17.7 0.00 0.43 0.00 92 1007.4
20260509085541 20 161 6.4 14.5 0.00 0.43 0.00 91 1007.7
20260509084544 20 160 8.0 22.5 0.00 0.43 0.00 91 1008.0
20260509083519 20 155 6.4 12.9 0.00 0.43 0.00 91 1008.6